Theta_e
300 300 301 301 303 305 306 306 306 308 309 311 313 315 316 315 314 314 312 310 311 310 307 308 308 307 307 306 304 304 305 306 305 306 302 301 300 299 297 296 295 296 296
298 298 298 299 299 299 300 301 302 304 304 304 306 308 307 307 307 307 307 305 305 304 303 301 301 300 300 300 300 300 300 299 300 297 296 296 296 295 294 293 293 293 294
296 297 296 296 297 297 298 298 299 300 300 300 300 301 302 302 302 301 300 300 299 299 298 298 298 297 297 297 297 296 296 296 296 295 294 292 293 293 292 292 291 292 292
295 295 294 294 295 296 296 297 297 297 297 298 297 297 297 297 296 297 295 296 296 296 296 296 295 295 295 294 294 294 293 293 292 292 290 290 290 290 289 289 289 290 290
294 293 293 293 293 294 294 294 295 295 295 295 295 295 295 294 293 294 294 294 294 293 293 292 293 291 289 292 293 293 293 292 290 290 289 288 288 287 287 288 287 289 290
293 292 291 291 291 291 291 291 292 292 293 293 293 293 293 291 292 293 293 292 291 290 290 291 291 287 288 289 290 293 293 291 289 288 288 286 287 287 288 287 286 285 284
291 290 289 289 289 289 289 289 290 290 291 291 292 292 292 292 292 293 292 291 291 290 290 289 289 288 287 290 291 293 292 292 292 290 288 287 287 288 287 286 286 285 284
288 288 287 287 287 287 287 287 287 288 289 289 290 290 290 290 292 292 291 291 290 290 289 289 288 288 288 288 289 289 290 289 289 288 289 288 288 289 288 287 287 286 287
286 286 285 285 285 285 285 285 285 286 287 287 287 288 288 288 290 291 291 289 288 288 288 288 288 287 288 289 288 287 287 287 289 290 290 290 289 288 288 287 285 283 282
285 285 284 284 284 284 284 284 285 285 285 285 286 287 285 286 288 290 290 288 287 287 287 287 283 285 288 289 288 287 286 286 286 286 287 287 287 287 287 287 285 282 281
283 283 282 282 282 283 283 283 283 284 284 284 284 285 285 284 285 288 290 288 286 286 286 285 286 288 289 290 290 287 287 287 287 286 285 285 285 285 285 284 283 282 280
280 280 278 279 280 281 280 281 281 282 281 281 281 282 283 283 284 288 290 290 288 286 285 284 285 288 290 290 288 289 288 286 285 284 283 282 281 281 281 281 281 280 281
274 274 275 276 278 278 278 279 279 279 279 279 279 279 280 281 283 285 289 289 288 285 285 287 288 288 287 286 286 284 282 282 281 280 279 279 279 278 278 277 277 276 276
270 271 273 273 275 275 277 278 278 278 278 278 278 278 278 279 280 281 282 282 283 284 285 284 285 285 284 281 279 278 278 278 277 276 276 275 275 274 273 273 273 271 271
270 271 272 273 271 273 275 277 277 278 279 276 275 275 276 277 280 284 283 282 281 282 278 280 280 281 278 276 274 273 273 274 272 273 272 272 271 271 270 269 268 268 268
270 271 271 271 270 271 272 273 280 282 283 283 283 280 279 282 284 284 282 282 283 283 276 277 275 274 273 272 272 271 270 270 269 270 269 269 268 268 268 267 266 265 266
267 268 268 269 270 270 270 271 271 274 280 282 283 283 282 282 282 281 280 279 279 276 271 271 271 271 270 269 269 269 268 267 267 267 266 265 265 266 266 265 265 264 265
260 264 265 266 266 266 267 267 267 268 269 270 276 280 281 280 279 278 278 273 268 269 269 268 268 268 268 267 267 267 265 265 264 263 262 261 261 263 265 264 263 261 263
262 262 262 263 263 263 264 264 265 264 264 266 270 274 274 276 275 274 273 267 267 266 266 266 266 266 264 264 262 262 261 261 260 261 259 259 259 262 262 261 262 259 260
258 261 261 261 263 263 265 267 269 271 272 272 271 271 269 269 266 263 264 265 264 263 263 262 261 261 261 261 260 260 261 261 260 260 260 259 259 260 261 261 260 262 262
266 267 267 268 269 269 271 271 272 272 271 270 269 267 270 265 263 263 262 262 263 262 262 261 260 259 258 258 258 259 260 260 258 259 260 259 258 261 258 259 260 259 259
256 255 255 257 259 263 265 265 268 267 267 267 267 270 269 262 262 261 260 260 259 258 258 259 258 258 257 259 259 260 260 260 260 259 259 258 259 259 259 260 260 260 260
254 254 253 253 253 256 257 259 264 265 265 264 263 262 262 260 260 260 259 257 257 257 256 257 257 257 256 257 257 259 261 260 259 256 259 259 259 259 258 260 259 260 259
251 252 253 253 253 254 255 259 262 263 263 262 261 261 261 260 260 259 257 255 255 254 253 254 256 257 257 257 257 256 255 254 254 255 256 258 258 257 258 257 257 257 257
250 251 253 254 255 258 259 260 261 261 261 261 261 261 260 259 258 256 254 254 252 253 254 252 251 252 252 252 254 256 257 254 254 252 254 255 256 255 254 255 255 256 256
251 251 253 254 256 258 260 260 260 261 260 260 260 260 259 258 256 256 254 253 254 253 251 251 251 250 251 253 254 262 263 261 256 252 254 256 257 255 255 254 254 255 254
Wind_Speed
5 4 5 4 4 4 4 4 4 3 4 4 3 3 2 0 3 2 1 2 3 2 1 1 2 2 2 2 1 1 2 3 6 3 1 1 2 3 4 4 6 6 5
4 5 5 5 5 5 5 4 4 4 3 3 3 3 3 2 2 1 1 1 2 3 3 3 4 2 2 1 1 3 3 3 3 5 0 1 3 2 3 6 5 5 5
6 6 6 6 6 5 4 4 4 4 3 3 3 2 1 0 1 1 2 3 3 4 4 4 4 4 3 3 3 3 2 2 3 3 3 1 2 1 3 3 5 4 5
5 6 6 6 5 5 4 5 5 4 4 4 3 2 2 1 2 2 3 4 3 3 3 4 4 5 5 4 4 4 3 2 2 2 2 2 1 1 2 3 6 4 8
6 6 6 5 5 5 6 6 5 5 4 4 4 4 3 3 3 4 4 4 4 4 4 4 4 4 5 4 3 4 5 3 3 3 3 2 2 1 3 3 6 8 8
5 6 5 5 5 5 5 5 5 5 4 4 4 4 5 4 5 6 5 4 4 4 5 4 4 4 4 7 8 7 7 6 4 3 2 3 3 3 3 4 5 7 6
6 5 5 5 6 6 5 5 6 6 5 5 5 4 4 4 5 7 7 5 5 5 5 5 4 3 4 4 7 9 8 8 5 5 5 5 3 2 2 4 5 5 6
5 4 5 6 6 6 6 6 6 4 5 5 5 5 5 4 6 7 8 5 4 5 5 5 5 4 4 4 3 4 4 3 3 3 4 3 3 2 3 4 6 7 6
3 3 4 4 5 5 5 6 5 4 5 4 5 7 6 6 9 9 6 4 5 5 4 4 4 4 5 8 5 5 4 3 2 3 5 5 1 3 5 3 4 6 7
2 4 4 4 5 5 4 5 3 2 4 4 6 5 6 7 9 10 7 3 4 3 3 3 5 3 4 6 5 4 4 3 3 1 0 1 1 2 4 3 3 6 6
3 4 5 4 5 4 4 3 4 5 4 4 4 4 4 4 6 11 10 3 2 2 2 2 3 6 6 5 7 4 3 4 3 2 1 1 1 1 3 4 5 4 5
3 3 3 3 3 3 3 4 4 4 4 5 5 4 3 3 6 6 7 3 1 1 1 1 1 3 5 5 5 6 6 5 2 2 0 1 2 2 4 4 3 3 3
3 4 4 4 3 3 2 2 2 3 3 3 3 3 3 3 3 9 9 6 6 3 2 5 8 10 12 11 14 12 7 4 3 2 2 2 2 2 2 2 3 4 4
1 1 2 0 2 1 2 1 1 2 2 3 3 3 2 2 2 3 3 3 6 5 6 3 6 9 10 8 6 8 5 4 4 3 2 2 2 3 3 4 3 4 3
1 1 1 1 2 3 1 1 1 2 0 1 2 2 2 2 2 3 4 3 2 3 4 2 2 3 4 4 5 6 5 5 5 3 2 2 3 2 3 3 2 2 2
2 1 1 1 0 0 1 1 3 3 4 4 4 1 1 1 5 7 8 9 7 4 3 2 3 4 4 4 4 3 5 6 4 3 3 3 2 3 3 3 2 1 2
3 2 0 0 1 1 0 1 1 3 4 6 7 7 7 6 6 5 7 9 14 5 3 3 3 4 4 4 4 4 3 3 3 4 4 3 3 2 2 2 2 2 3
2 2 2 1 0 1 1 1 0 1 2 2 6 5 8 11 10 9 4 6 5 7 4 3 4 4 4 4 4 3 3 3 3 4 4 3 3 2 2 3 4 3 3
2 1 1 0 1 1 1 0 0 0 1 2 1 4 7 9 8 10 11 3 4 5 4 5 4 4 4 3 3 3 3 3 3 2 3 2 2 2 3 2 2 3 2
0 1 2 1 0 0 1 1 2 2 2 2 1 1 0 2 3 3 4 3 5 4 5 5 4 4 4 3 3 3 3 3 3 3 3 3 2 1 2 3 4 4 4
2 2 4 2 2 1 2 2 2 2 2 1 1 1 4 3 4 3 3 4 4 4 5 4 4 4 3 3 3 3 4 3 3 3 3 2 3 3 3 3 3 2 2
1 0 1 1 1 1 1 1 1 2 2 3 2 5 10 5 4 4 4 4 3 3 2 3 4 3 2 3 3 3 3 4 3 3 3 2 2 4 3 3 4 4 3
1 1 1 1 1 2 1 1 1 2 3 4 4 4 4 4 4 4 5 3 3 3 2 2 3 3 2 1 1 2 3 3 2 1 3 4 4 4 4 4 4 4 5
1 1 1 1 1 0 1 1 2 4 4 4 4 4 4 4 4 5 4 3 3 3 2 2 2 3 3 3 2 1 1 1 1 2 4 4 4 4 4 3 4 4 4
1 1 1 1 1 2 2 2 3 3 4 4 4 4 4 5 4 4 3 2 2 3 3 2 2 2 2 3 4 4 4 5 5 4 3 5 6 5 4 3 4 4 5
0 1 1 1 1 2 3 3 3 4 4 4 4 4 4 4 4 3 3 3 2 3 2 1 1 1 2 2 2 3 6 6 5 5 4 4 5 4 4 5 5 4 4
Wind_Direction
71 80 72 55 46 37 32 28 25 13 5 22 5 345 343 322 92 134 113 146 157 155 81 154 213 184 202 200 195 168 213 217 261 273 272 40 236 262 317 326 314 313 315
69 74 62 52 40 39 27 14 14 20 19 22 40 48 48 44 59 79 189 180 199 206 206 201 220 198 214 208 215 222 217 205 220 256 331 289 257 266 305 318 322 319 328
51 55 46 36 34 29 19 4 6 8 16 11 15 19 351 224 194 189 212 215 217 221 213 209 227 203 222 213 215 220 214 195 207 234 284 304 291 341 328 317 318 297 306
74 64 51 35 23 17 5 8 5 359 357 354 351 336 318 291 259 230 218 217 224 233 229 221 218 210 216 213 210 210 186 188 181 208 239 262 262 300 303 321 329 313 315
63 62 47 30 34 24 21 11 358 360 346 336 329 326 320 305 286 269 250 249 242 247 239 238 235 235 229 216 189 199 187 189 188 213 236 244 264 278 327 310 313 321 320
67 56 39 37 38 24 13 6 6 0 358 355 346 328 319 300 286 264 250 261 256 253 261 259 250 228 228 227 232 206 190 188 190 184 189 228 248 246 282 317 327 341 329
55 36 21 23 26 14 359 360 359 350 340 339 333 331 304 287 262 251 240 242 241 235 237 243 250 240 229 223 232 217 205 203 192 173 193 204 218 236 301 314 309 297 278
54 32 21 15 6 355 354 355 346 338 337 331 325 326 312 296 275 250 242 243 253 253 242 238 230 242 221 208 216 220 216 212 199 180 202 192 206 277 315 298 299 293 279
31 15 1 351 336 339 336 332 325 327 331 330 319 319 315 310 314 303 270 221 222 236 238 231 223 229 233 213 195 216 212 213 209 206 215 209 201 358 312 306 299 308 314
318 314 318 318 311 314 317 312 281 291 289 310 313 309 310 310 318 308 291 248 248 228 207 204 209 238 252 232 205 204 211 212 182 190 281 144 60 343 348 339 319 305 311
278 303 306 311 307 308 317 318 317 320 319 316 320 325 348 347 333 333 316 276 256 221 208 193 190 209 218 213 184 185 204 157 185 208 223 185 89 31 37 31 6 334 301
269 289 308 315 329 351 346 329 341 344 333 336 336 344 1 8 359 343 355 21 12 10 5 11 2 153 150 133 110 113 105 99 90 89 57 52 20 34 19 346 342 324 296
24 358 352 344 341 328 325 343 1 4 352 332 346 344 345 6 15 26 42 53 80 73 73 97 93 89 83 77 81 68 54 55 83 82 44 36 11 348 357 1 345 346 318
139 291 279 345 327 7 28 24 34 13 357 345 344 350 335 0 23 22 28 37 57 77 71 61 84 83 91 101 77 65 54 49 51 49 20 31 353 5 11 10 4 2 351
177 287 337 31 24 354 341 333 338 287 288 335 319 307 337 343 331 60 67 44 41 115 113 89 89 68 65 59 59 72 54 44 53 47 46 42 20 358 29 5 29 12 26
171 226 267 313 353 261 319 298 348 45 43 42 64 159 316 302 41 58 57 42 19 13 31 30 72 82 79 55 44 66 60 52 33 27 40 43 26 19 357 10 16 23 358
177 199 192 355 328 324 317 202 267 330 22 35 52 57 48 43 42 33 51 47 37 52 74 65 79 65 78 75 73 55 63 47 28 58 40 12 14 47 1 358 8 25 20
180 170 153 145 180 6 359 328 294 221 266 301 20 12 90 68 45 15 355 46 42 49 73 85 80 70 62 66 63 65 60 60 59 61 58 12 12 17 12 12 22 6 2
164 135 115 142 160 157 183 145 102 130 238 258 307 67 48 78 59 43 48 85 102 84 78 75 70 74 75 77 71 69 70 59 46 58 57 33 19 25 40 18 357 31 19
20 180 163 179 213 214 208 212 210 216 208 226 211 196 9 52 49 44 45 71 84 90 94 93 79 78 78 79 78 78 84 70 59 56 52 37 33 15 39 21 29 15 10
358 354 350 321 270 265 265 253 250 237 218 193 144 245 181 118 121 102 92 82 95 93 96 94 89 85 81 88 92 85 77 75 61 60 47 32 10 34 25 46 27 27 353
66 33 28 266 291 303 260 240 223 203 166 136 91 71 99 91 101 100 91 84 75 79 86 108 102 90 86 83 89 87 76 65 54 50 49 48 41 41 36 37 26 22 14
66 43 5 306 318 339 343 323 214 160 133 121 118 115 98 97 102 105 105 103 95 92 87 109 108 89 79 91 81 54 63 52 49 100 66 56 48 47 41 43 21 19 16
125 192 239 287 40 170 217 221 155 134 125 126 121 118 114 109 112 110 106 114 111 96 79 86 89 93 75 58 47 58 72 110 107 85 77 72 65 50 53 53 37 25 21
181 204 209 230 226 207 175 149 124 119 122 128 121 113 105 112 113 116 127 127 117 114 95 72 56 48 43 31 35 43 72 77 83 88 78 79 75 67 62 56 38 35 29
286 232 237 198 187 162 152 139 126 124 129 123 122 121 127 130 137 142 148 141 117 97 86 70 52 35 24 29 359 61 92 92 84 85 90 80 74 64 61 53 46 48 37